www.pogodaiklimat.ru

Погода и климат >> Архив погоды >> Узбекистан >> Жаслык


ПОГОДА в Жаслыке

  • Прогноз погоды в Жаслыке
  • Монитор погоды в Жаслыке
  • Климат города

АРХИВ ПОГОДЫ в Жаслыке

Время (UTC), дата Ветер
(напр.,м/с)
 
Видим.   Явления Облачность Т
(С)
Тd
(С)
f
(%)
Тe
(С)
Тes
(С)
Комфортность P
(гПа)
Po
(гПа)
Тmin
(С)
Tmax
(С)
R
(мм)
R24
(мм)
S
(см)
00 15.02 штиль 0 20 км ясно -19.3 -21.3 84 -19 -19 1034.8 1017.1
03 15.02 С 2 20 км 10/0
[Ci sp]
-19.5 -21.4 85 -25 -25 1036.4 1018.7 3
06 15.02 СВ 1 20 км 10/0
[Ci sp]
-12.4 -16.7 70 -15 -10 1038.5 1021.3 -20.5
09 15.02 В 1 20 км 10/0
[Ci sp]
-8.4 -13.7 66 -11 -4 1038.6 1021.7
12 15.02 20 км 4/0
[Ci sp]
-7.7 -13.2 65 1038.9 1021.4
15 15.02 В 3 20 км 4/0
[Ci sp]
-10.9 -14.5 75 -17 -17 1039.1 1022.0 -6.7
18 15.02 В 3 20 км 10/0
[Ci sp]
-10.8 -12.8 85 -17 -17 1040.2 1023.0 -6.7
21 15.02 В 2 20 км 10/0
[Ci sp]
-12.2 -14.2 85 -17 -17 1040.4 1023.1
00 16.02 СВ 3 20 км ясно -15.1 -17.0 85 -22 -22 1040.7 1023.1
03 16.02 СВ 3 20 км ясно -17.2 -19.1 85 -24 -24 1041.7 1023.7 3
06 16.02 В 2 20 км ясно -10.3 -14.7 70 -15 -10 1042.2 1025.0 -17.2
09 16.02 В 4 20 км ясно -6.3 -12.3 62 -13 -8 1041.4 1024.5
12 16.02 СВ 5 20 км ясно -5.5 -10.6 67 -12 -12 1041.2 1024.3
15 16.02 СВ 5 20 км ясно -11.5 -15.0 75 -19 -19 1041.4 1024.1 -4.9
18 16.02 В 4 20 км ясно -13.8 -15.8 85 -21 -21 1041.8 1024.4 -4.9
21 16.02 В 5 20 км ясно -14.9 -16.9 85 -24 -24 1041.1 1023.7
00 17.02 В 5 20 км ясно -14.1 -16.1 85 -23 -23 1040.5 1023.1
03 17.02 В 4 20 км ясно -15.5 -17.5 85 -23 -23 1039.9 1022.4 3
06 17.02 В 6 20 км 3/0
[Ci fib]
-9.4 -13.4 73 -18 -16 1038.5 1021.4 -15.6
09 17.02 В 7 20 км ясно -5.5 -11.6 62 -14 -12 1037.0 1020.2
12 17.02 В 10 20 км ясно -3.2 -9.6 61 -12 -12 1035.1 1018.4
15 17.02 В 10 20 км ясно -10.5 -13.3 80 -21 -21 1035.3 1018.2 -3.0
18 17.02 В 9 20 км ясно -12.8 -15.5 80 -24 -24 1035.0 1017.8 -3.0
21 17.02 В 7 20 км ясно -12.8 -14.8 85 -22 -22 1035.2 1018.0
00 18.02 В 5 20 км ясно -13.4 -15.4 85 -22 -22 1034.5 1017.3
03 18.02 В 3 20 км ясно -14.4 -16.4 85 -21 -21 1034.1 1016.9 3
06 18.02 В 7 20 км 3/0
[Ci sp]
-8.6 -14.0 65 -17 -16 1034.2 1017.3 -14.8
09 18.02 В 13
{18}
20 км 4/0
[Ci fib]
-4.9 -12.2 57 -15 -15 1031.4 1014.8
12 18.02 В 20
{25}
20 км 6/0
[Ci fib]
-4.0 -10.8 59 -16 -16 1028.9 1012.4
15 18.02 В 17 20 км ясно -8.3 -13.0 69 -21 -21 1027.8 1011.0 -3.1
18 18.02 В 20 20 км ясно -10.1 -13.7 75 -24 -24 1027.4 1010.5 -3.1
21 18.02 В 17 20 км ясно -10.6 -13.4 80 -24 -24 1026.5 1009.6
00 19.02 В 15 20 км ясно -10.4 -12.4 85 -23 -23 1024.7 1007.8
03 19.02 В 17 20 км 9/9 600 м
[Sc]
-10.4 -12.4 85 -24 -24 1023.4 1006.6 3
06 19.02 В 20 20 км 10/10 600 м
[Sc]
-7.2 -10.6 77 -20 -20 1022.5 1005.8 -10.6
09 19.02 В 15 20 км 10/10 600 м
[Sc]
-4.0 -8.0 74 -15 -15 1020.6 1004.2
12 19.02 СВ 13
{18}
20 км 10/10 600 м
[Sc]
-4.7 -7.8 79 -15 -15 1019.8 1003.4
15 19.02 В 13 20 км 10/10 600 м
[Sc]
-5.6 -8.2 82 -16 -16 1018.9 1002.4 -3.1
18 19.02 В 8 20 км 10/10 600 м
[Sc]
-4.8 -7.2 83 -14 -14 1019.3 1002.9 -3.1
21 19.02 В 2 20 км 10/10 600 м
[Sc]
-5.4 -6.8 90 -10 -10 1018.6 1002.1
00 20.02 СВ 3 20 км 10/10 600 м
[Sc]
-5.5 -6.9 90 -11 -11 1017.3 1000.8
03 20.02 В 1 20 км 10/10 600 м
[Sc]
-4.9 -6.2 91 -7 -7 1017.0 1000.6 3
06 20.02 С 1 20 км 10/10 600 м
[Sc]
-3.0 -5.7 82 -5 -5 1017.4 1001.0 -5.5
09 20.02 СЗ 1 20 км 10/10 600 м
[Sc]
-0.6 -5.1 72 -2 -2 1016.8 1000.7
12 20.02 штиль 0 20 км 10/10 600 м
[Sc]
-1.0 -3.9 81 -2 -2 1016.7 1000.5
15 20.02 З 2 20 км 10/10 600 м
[Sc]
-2.0 -3.2 91 -6 -6 1017.7 1001.5 +0.1
18 20.02 СЗ 3 20 км 10/10 600 м
[Sc]
-2.6 -3.9 91 -8 -8 1018.5 1002.3 +0.1
21 20.02 СЗ 2 20 км 10/10 600 м
[Sc]
-3.5 -4.9 90 -8 -8 1019.3 1002.9
00 21.02 СЗ 5 20 км 10/10 600 м
[Sc]
-5.3 -6.3 93 -13 -13 1021.3 1004.7
03 21.02 СЗ 3 20 км 10/10 600 м
[Sc]
-7.0 -7.5 96 -13 -13 1023.5 1006.8 2
06 21.02 СЗ 2 20 км 8/8 600 м
[Sc]
-6.2 -7.4 91 -11 -10 1023.5 1006.9 -7.0
09 21.02 С 3 20 км 8/0
[Ac trans]
-2.6 -6.7 73 -8 -4 1024.2 1007.8
12 21.02 СЗ 2 20 км 9/0
[Ac trans Ci fib]
-1.6 -6.1 71 -5 -4 1025.0 1008.6
15 21.02 СВ 3 20 км 8/0
[Ac trans]
-2.9 -4.9 86 -8 -8 1025.4 1009.0 -1.1
18 21.02 СВ 3 20 км 8/0
[Ac trans Ci sp]
-3.6 -5.0 90 -9 -9 1025.9 1009.4 -1.1
21 21.02 В 3 20 км 8/0
[Ac trans]
-4.5 -6.1 89 -10 -10 1026.0 1009.5

 

Местоположение метеостанции Жаслык (Каракалпакстан, Узбекистан): широта 43.88 долгота 57.52 высота над уровнем моря 128 м.

В архиве по умолчанию представлена погода в Жаслыке за последнюю неделю. Архивные данные за месяц целиком и за предыдущие месяцы, начиная с января 2011 года, Вы можете получить, выбрав интересующий диапазон дат из раскрывающегося списка и нажав кнопку "Ввод!".

Внимание! Время в таблицах - всемирное. Для получения местного времени необходимо прибавить поправку, которая в Жаслыке равна 5 ч.

Смотрите также архив погоды в соседних городах и на ближайших метеорологических станциях:

Погода в Муйнаке (Каракалпакстан, Узбекистан) (98 км)
Погода в Каракалпакии (Каракалпакстан, Узбекистан) (144 км)
Погода в Кунграде (Каракалпакстан, Узбекистан) (144 км)
Погода в Саме (Мангистауская область, Казахстан) (202 км)
Погода в Чимбае (Каракалпакстан, Узбекистан) (213 км)
Погода в Кенеургенче (Дашогузский велаят, Туркменистан) (219 км)
Погода в Тахтакупыре (Каракалпакстан, Узбекистан) (231 км)
Погода в Нукусе (Каракалпакстан, Узбекистан) (233 км)
Погода в Бейнеу (Мангистауская область, Казахстан) (244 км)
Погода в Шах-Сенеме (Дашогузский велаят, Туркменистан) (274 км)

Пояснения к столбцам:

Ветер - указаны скорость ветра в м/с - средняя за 10 мин, порывы в срок и между сроками (в фигурных скобках) и направление, откуда дует ветер: С - северный, СВ - северо-восточный, В - восточный, ЮВ - юго-восточный, Ю - южный, ЮЗ - юго-западный, З - западный, СЗ - северо-западный.
Видимость - горизонтальная дальность видимости в метрах или километрах. При видимости от 1 до 10 км при отсутствии осадков обычно наблюдается дымка, при ухудшении видимости до 1 км и менее - туман. В сухую погоду видимость может ухудшаться дымом, пылью или мглою.
Явления - указаны атмосферные явления, наблюдавшиеся в срок или в последний час перед сроком; фигурными скобками обозначены явления, наблюдавшиеся между сроками (за 1-3 часа до срока); квадратными скобками обозначены град или гололедные отложения с указанием их диаметра в мм.
Облачность - указаны через наклонную черту общая и нижняя облачность в баллах и высота нижней границы облаков в метрах; квадратными скобками обозначены формы облаков: Ci - перистые, Cs - перисто-слоистые, Cc - перисто-кучевые, Ac - высококучевые, As - высокослоистые, Sc - слоисто-кучевые, Ns - слоисто-дождевые, Cu - кучевые, Cb - кучево-дождевые. Подробнее классификацию облаков см. в Атласе облаков (PDF).
T - Температура воздуха - температура, измеренная на высоте 2 м над землей.
Td - Температура точки росы - температура, при понижении до которой содержащийся в воздухе водяной пар достигнет насыщения.
f - Относительная влажность воздуха - влажноcть воздуха, измеренная на высоте 2 м над землей.
Te - Эффективная температура - температура, которую ощущает одетый по сезону человек в тени. Характеристика душности погоды. При расчете учитывается влияние влажности воздуха и скорости ветра на теплоощущения человека.
Tes - Эффективная температура на солнце - температура, которую ощущает человек, с поправкой на солнечный нагрев. Характеристика знойности погоды. Зависит от высоты солнца над горизонтом, облачности и скорости ветра. Ночью, в пасмурную погоду, а также при ветре 12 м/с и более поправка равна нулю.
P - Атмосферное давление - приведенное к уровню моря атмосферное давление.
Po - Атмосферное давление - измеренное на уровне метеостанции атмосферное давление.
Tmin - Минимальная температура - минимум температуры воздуха на высоте 2 м над землей.
Tmax - Максимальная температура - максимум температуры воздуха на высоте 2 м над землей.
R - Количество осадков - Количество выпавших осадков за период времени, мм. При наведении курсора мыши на число - период времени, за который выпало указанное количество осадков.
R24 - Количество осадков - Количество выпавших осадков за 24 часа, мм.
S - Снежный покров - Высота снежного покрова, см. При наведении курсора мыши на число - состояние снежного покрова и степень покрытия местности в баллах.